Regional Weather Roundup
Issued by NWS

Home | Current Version | Previous Version | Text Only | Print | Product List | Glossary Off
Versions: 1 2 3 4 5 6 7 8 9 10 11 12 13 14 15 16 17 18 19 20 21 22 23 24 25 26 27 28 29 30 31 32 33 34 35 36 37 38 39 40 41 42 43 44 45 46 47 48 49 50

000
ASUS43 KIND 210709
RWRIN

WEATHER ROUNDUP FOR INDIANA
NATIONAL WEATHER SERVICE INDIANAPOLIS IN
200 AM EST SUN DEC 21 2014

NOTE: "FAIR" INDICATES FEW OR NO CLOUDS BELOW 12,000 FEET WITH NO
SIGNIFICANT WEATHER AND/OR OBSTRUCTIONS TO VISIBILITY.

* - STATION DOES NOT REPORT WEATHER SUCH AS PRECIPITATION OR FOG.

+ - STATION NOT QUALITY CONTROLLED BY THE NATIONAL WEATHER SERVICE.
    USE DATA WITH CAUTION...ESPECIALLY DEWPOINT AND RELATIVE
    HUMIDITY OBSERVATIONS.

INZ001>003-010>013-019-020-210800-
NORTHWEST INDIANA

CITY           SKY/WX    TMP DP  RH WIND       PRES   REMARKS
GARY /AIRPORT/ CLOUDY    34  25  69 S3        30.26F
KNOX *+        CLOUDY    31  24  77 S5        30.26S WCI  26
LA PORTE +     CLOUDY    32  29  90 S3        30.27R FOG
MICHIGAN CITY+ CLOUDY    32  23  69 S5        30.27S WCI  27
MONTICELLO +   CLOUDY    31  27  86 S3        30.27S
RENSSELAER +   CLOUDY    32  32 100 S7        30.27F WCI  26
VALPARAISO     CLOUDY    30  26  85 S5        30.26F WCI  25

$$

LMZ046-743>745-210800-
SOUTHERN LAKE MICHIGAN

STATION/POSITION TIME  TEMP WIND        PRES
                       AIR  DIR/SP/G
                 (UTC) (F)  (DEG/KT/KT) (MB)

$$

INZ004-005-014>016-021>024-210800-
NORTH CENTRAL INDIANA

CITY           SKY/WX    TMP DP  RH WIND       PRES   REMARKS
GOSHEN         CLOUDY    30  27  88 S3        30.26S FOG
LOGANSPORT +   CLOUDY    30  28  93 S5        30.28S FOG     WCI  25
PERU/GRISSOM   CLOUDY    30  30 100 S3        30.27S
ROCHESTER +    CLOUDY    32  30  93 S5        30.28R FOG     WCI  27
SOUTH BEND     CLOUDY    31  26  82 S5        30.27S HAZE    WCI  26
WARSAW +       CLOUDY    30  28  93 CALM      30.27R

$$

INZ006>009-017-018-025>027-210800-
NORTHEAST INDIANA

CITY           SKY/WX    TMP DP  RH WIND       PRES   REMARKS
ANGOLA *+      CLOUDY    28  27  93 CALM      30.25S
AUBURN +       CLOUDY    30  28  93 CALM      30.27F FOG
FORT WAYNE     CLOUDY    30  27  88 S5        30.28S WCI  25
HUNTINGTON +   CLOUDY    29  27  90 CALM      30.28R

$$

INZ028-029-035-036-043>045-051>053-210800-
WEST CENTRAL INDIANA

CITY           SKY/WX    TMP DP  RH WIND       PRES   REMARKS
GREENCASTLE +  CLEAR     23  19  86 CALM      30.29S
LAFAYETTE      CLOUDY    30  25  81 S3        30.29R
TERRE HAUTE    CLEAR     24  21  88 CALM      30.29S

$$

INZ030>032-037>040-046>048-054>057-064-065-210800-
CENTRAL INDIANA

CITY           SKY/WX    TMP DP  RH WIND       PRES   REMARKS
CP ATTERBURY + CLEAR     23  21  93 MISG      30.29S FOG
FRANKFORT +    CLOUDY    29  29 100 CALM      30.29R FOG
GREENWOOD *+   CLEAR     25  21  86 CALM      30.28S
INDIANAPOLIS   CLEAR     24  21  88 CALM      30.27S FOG
-EAGLE CREEK   CLEAR     22  19  89 CALM      30.27S FOG
KOKOMO *+      CLOUDY    30  27  86 S5        30.27S WCI  25
MARION +       CLOUDY    28  26  91 CALM      30.28S
MT COMFORT *+  CLEAR     25  25 100 CALM      30.28S
SHELBYVILLE    CLEAR     25  21  85 E3        30.28S FOG
ZIONSVILLE +   MOCLDY    25  22  87 CALM      30.28S FOG

$$

INZ033-034-041-042-049-050-058-059-210800-
EAST CENTRAL INDIANA

CITY           SKY/WX    TMP DP  RH WIND       PRES   REMARKS
MUNCIE         CLEAR     22  19  89 CALM      30.28S FOG

$$

INZ060-061-067>069-081>083-085>088-210800-
SOUTHWEST INDIANA

CITY           SKY/WX    TMP DP  RH WIND       PRES   REMARKS
EVANSVILLE     CLEAR     28  24  85 N3        30.30S
HUNTINGBURG *+ CLEAR     25  19  80 NE3       30.30S
WASHINGTON +   CLEAR     26  22  87 CALM      30.29S FOG

$$

INZ062-063-066-070>080-084-089>092-210800-
SOUTH CENTRAL AND SOUTHEAST INDIANA

CITY           SKY/WX    TMP DP  RH WIND       PRES   REMARKS
BLOOMINGTON    CLEAR     22  21  96 CALM      30.28R

$$




USA.gov is the U.S. government's official web portal to all federal, state and local government web resources and services.